Flag for Martinique Weather past 2 weeks in Fort-de-France, Martinique

Now
82 °F

Passing clouds.


Feels Like: 88 °F
Forecast: N/A
Wind: 9 mph from Northeast

Location: Le Lamentin Airport

Current Time: Aug 30, 2014 at 6:29:09 PM

Latest Report: Aug 30, 2014 at 6:00 PM


Visibility: N/A

Pressure: 29.98 "Hg

Humidity: 74%

Dew point: 73 °F

Location of Fort-de-FranceLocation

Historic Weather in Fort-de-France — Graph

°F

Fort-de-France temperature yesterday

Maximum temperature yesterday: 88 °F (at 11:30 AM)
Minimum temperature yesterday: 75 °F (at 5:30 AM)
Average temperature yesterday: 82 °F

Past Weeks' High & Low Weather Summary

 TemperatureHumidityPressure
High90 °F (Aug 16, 11:00 AM)100% (Aug 21, 5:00 AM)30.04 "Hg (Aug 21, 5:00 AM)
Low73 °F (Aug 24, 5:30 AM)59% (Aug 17, 12:30 PM)29.83 "Hg (Aug 21, 3:30 PM)
Average82 °F81%29.94 "Hg
* Reported Aug 15 5:00 PM — Aug 30 5:30 PM, Fort-de-France, Weather by CustomWeather, © 2014

Note: Actual official high and low records may vary slightly from our data, if they occured in-between our weather recording intervals... More about our weather records

Advertising

Fort-de-France weather history for previous 24 hours

 ConditionsComfort  
Time TempWeatherWind HumidityBarometerVisibility
5:30 PM
Aug 30
84 °FPassing clouds.10 mph66%29.98 "HgN/A
5:00 PM86 °FScattered clouds.12 mph62%29.98 "HgN/A
4:30 PM86 °FScattered clouds.12 mph62%29.98 "HgN/A
4:00 PM86 °FScattered clouds.10 mph62%29.98 "HgN/A
3:30 PM88 °FPassing clouds.14 mph59%29.98 "HgN/A
3:00 PM88 °FPassing clouds.15 mph59%29.98 "HgN/A
2:00 PM88 °FScattered clouds.17 mph59%29.98 "HgN/A
1:30 PM88 °FScattered clouds.17 mph62%30.01 "HgN/A
1:00 PM88 °FScattered clouds.16 mph62%30.01 "HgN/A
12:30 PM88 °FScattered clouds.16 mph62%30.01 "HgN/A
12:00 PM88 °FPassing clouds.17 mph62%30.04 "HgN/A
11:30 AM88 °FPassing clouds.18 mph62%30.04 "HgN/A
11:00 AM88 °FPassing clouds.18 mph62%30.04 "HgN/A
10:30 AM86 °FBroken clouds.16 mph75%30.04 "HgN/A
10:00 AM84 °FBroken clouds.20 mph79%30.04 "HgN/A
9:30 AM86 °FBroken clouds.15 mph75%30.04 "HgN/A
9:00 AM84 °FBroken clouds.12 mph79%30.04 "HgN/A
8:30 AM82 °FBroken clouds.10 mph79%30.01 "HgN/A
8:00 AM84 °FPartly sunny.14 mph74%30.01 "HgN/A
7:30 AM84 °FPassing clouds.9 mph79%30.01 "HgN/A
7:00 AM82 °FPassing clouds.10 mph84%29.98 "HgN/A
6:30 AM81 °FScattered clouds.8 mph84%29.98 "HgN/A
6:00 AM79 °FBroken clouds.7 mph89%29.98 "HgN/A
5:30 AM79 °FPassing clouds.8 mph89%29.98 "HgN/A
5:00 AM79 °FMostly cloudy.12 mph89%29.98 "HgN/A
4:30 AM81 °FPassing clouds.10 mph84%29.98 "HgN/A
4:00 AM81 °FPartly cloudy.13 mph84%29.98 "HgN/A
3:30 AM81 °FPartly cloudy.9 mph84%29.95 "HgN/A
3:00 AM81 °FPassing clouds.8 mph84%29.95 "HgN/A
2:30 AM81 °FPassing clouds.7 mph84%29.95 "HgN/A
2:00 AM79 °FPassing clouds.5 mph89%29.95 "HgN/A
1:30 AM79 °FPassing clouds.3 mph89%29.98 "HgN/A
1:00 AM79 °FClear.5 mph89%29.98 "HgN/A
12:30 AM79 °FPassing clouds.3 mph89%29.98 "HgN/A
12:00 AM79 °FPassing clouds.6 mph89%30.01 "HgN/A
11:30 PM
Aug 29
79 °FPassing clouds.5 mph89%30.01 "HgN/A
11:00 PM79 °FPassing clouds.3 mph89%30.04 "HgN/A
10:30 PM79 °FPartly cloudy.6 mph89%30.04 "HgN/A
10:00 PM79 °FPassing clouds.8 mph84%30.04 "HgN/A
9:30 PM81 °FPassing clouds.6 mph84%30.01 "HgN/A
9:00 PM81 °FPassing clouds.6 mph84%30.01 "HgN/A
8:30 PM81 °FPassing clouds.7 mph84%30.01 "HgN/A
8:00 PM81 °FPassing clouds.8 mph84%29.98 "HgN/A
7:30 PM81 °FPassing clouds.8 mph84%29.98 "HgN/A
7:00 PM81 °FPassing clouds.9 mph84%29.98 "HgN/A
6:30 PM81 °FPassing clouds.7 mph84%29.95 "HgN/A
6:00 PM82 °FPartly sunny.13 mph84%29.95 "HgN/A
Weather by CustomWeather, © 2014

See weather overviewHow to use our weather pages